Regional Weather Roundup
Issued by NWS Sterling, VA

Home | Current Version | Previous Version | Text Only | Print | Product List | Glossary Off
Versions: 1 2 3 4 5 6 7 8 9 10 11 12 13 14 15 16 17 18 19 20 21 22 23 24 25 26 27

000
ASUS41 KLWX 300310
RWRLWX

REGIONAL WEATHER ROUNDUP
NATIONAL WEATHER SERVICE BALTIMORE MD/WASHINGTON DC
1100 PM EDT MON MAY 29 2017

Note: "FAIR" indicates few or no clouds below 12,000 feet
with no significant weather and/or obstructions to visibility.
 TC=TEMPERATURE CELSIUS

 * =Non NWS site. Station does not report precipitation (e.g. rain,
    snow, etc.), thunder, or fog.

DCZ001-MDZ009-015-VAZ040>042-051-053>054-300400-
WASHINGTON METRO

CITY           SKY/WX    TMP DP  RH WIND       PRES   REMARKS
WASHINGTON NAT CLOUDY    71  67  87 E7        30.03R
DULLES         CLOUDY    70  62  76 SE8       30.01R
ANDREWS AFB    CLOUDY    68  65  90 SE8       30.02R
FT BELVOIR     CLOUDY    68  64  88 CALM      30.02R
QUANTICO       CLOUDY    72  68  87 S10       30.03R
COLLEGE PARK*  CLOUDY    68  64  86 CALM      30.04R
LEESBURG*      CLOUDY    72  64  78 SE6       30.02R
MANASSAS*      MOCLDY    67  62  84 SE3       30.02R
GAITHERSBURG*  CLOUDY    67  65  93 VRB6      30.04R

$$

MDZ006>007-011-014-300400-
BALTIMORE METRO

CITY           SKY/WX    TMP DP  RH WIND       PRES   REMARKS
BWI AIRPORT    CLOUDY    66  63  90 E10       30.04R
MD SCIENCE CTR   N/A     67  62  84 MISG      30.05R
MARTIN STATE   CLOUDY    63  63 100 E6        30.07R
ANNAPOLIS      CLOUDY    66  64  93 SE17      30.05R
FORT MEADE*    CLOUDY    66  63  88 E7        30.06R

$$

MDZ012-015-019>023-300400-
MARYLAND EASTERN SHORE

CITY           SKY/WX    TMP DP  RH WIND       PRES   REMARKS
OCEAN CITY     CLOUDY    58  56  93 SE7       30.10R
SALISBURY      CLOUDY    59  58  96 E9        30.08S
BAY BRIDGE AP* CLOUDY    63  59  88 SE9       30.05R
CAMBRIDGE*     CLOUDY    63  59  88 E9        30.06S
EASTON*        CLOUDY    62  58  86 SE8       30.10R

$$

MDZ017>025-300400-
SOUTHERN MARYLAND

CITY           SKY/WX    TMP DP  RH WIND       PRES   REMARKS
PATUXENT RIVER CLOUDY    65  64  97 SE13      30.06R
ST INIGOES     CLOUDY    65  62  90 SE9       30.05R
LEONARDTOWN*   NOT AVBL

$$

MDZ003>005-300400-
NORTH CENTRAL MARYLAND

CITY           SKY/WX    TMP DP  RH WIND       PRES   REMARKS
FREDERICK*     MOCLDY    70  70 100 SE10      30.04R
HAGERSTOWN APT CLOUDY    70  60  70 SE3       30.00R
WESTMINSTER*   CLOUDY    66  64  94 SE9       30.04R

$$

MDZ501>502-300400-
WESTERN MARYLAND

CITY           SKY/WX    TMP DP  RH WIND       PRES   REMARKS
OAKLAND*         N/A     59  52  77 S7        30.09R
CUMBERLAND*    CLOUDY    64  61  88 CALM      30.05R

$$

VAZ025>031-300400-
SHENANDOAH VALLEY

CITY           SKY/WX    TMP DP  RH WIND       PRES   REMARKS
WINCHESTER*    PTCLDY    63  59  88 SE5       30.01R
FRONT ROYAL*   PTCLDY    64  59  82 SW3       30.01R
LURAY*         CLOUDY    64  61  88 CALM      30.03S
NEW MARKET*    PTCLDY    63  60  90 W3        30.01F
STAUNTON*      CLOUDY    63  57  82 CALM      30.06S
WAYNESBORO*    CLOUDY    62  57  84 CALM      30.05S

$$

WVZ021-048>050-054>055-300400-
EASTERN WEST VIRGINIA PANHANDLE

CITY           SKY/WX    TMP DP  RH WIND       PRES   REMARKS
MARTINSBURG    PTCLDY    64  61  90 S5        29.99R
PETERSBURG*    CLOUDY    62  60  91 CALM      30.03S

$$

VAZ036>039-050-300400-
CENTRAL FOOTHILLS

CITY           SKY/WX    TMP DP  RH WIND       PRES   REMARKS
CHARLOTTESVILL CLOUDY    68  65  90 CALM      30.01S
CULPEPER*      CLOUDY    65  64  97 CALM      30.02R
ORANGE*        CLOUDY    64  63  94 CALM      30.01S
GORDONSVILLE*  PTCLDY    65  65 100 CALM      30.01F
WARRENTON*     PTCLDY    65  60  85 CALM      30.01R

$$

VAZ055>057-300400-
NORTH AND CENTRAL PIEDMONT

CITY           SKY/WX    TMP DP  RH WIND       PRES   REMARKS
FREDERICKSBRG* CLOUDY    70  66  87 SE5       30.01R
STAFFORD*      MOCLDY    65  65 100 CALM      30.06R

$$

NCZ024-NYZ072-PAZ021-071-VAZ022-071-300400-
OTHER REGIONAL OBSERVATIONS

CITY           SKY/WX    TMP DP  RH WIND       PRES   REMARKS
NEW YORK CITY  CLOUDY    58  52  80 VRB3      30.12R
PHILADELPHIA   CLOUDY    58  54  86 SE8       30.09R
PITTSBURGH     MOCLDY    65  57  75 S5        29.96S
ROANOKE        CLOUDY    70  58  65 CALM      30.06S
RICHMOND       CLOUDY    73  68  84 E10       30.02R
RALEIGH        LGT RAIN  72  69  90 S5        30.04F

$$

ANZ530>537-300400-
MARINE OBSERVATIONS

STATION/POSITION TIME  TEMP    WIND        PRES
                       AIR SEA DIR/SP/G
                 (UTC) (F)     (DEG/KT/KT) (MB)
THOMAS PT LIGHT  0300   63 66  120/ 12/ 13   N/A
BALT KEY BRIDGE  0248   64     120/ 12/ 14 1017.4R
COVE POINT       0248   65     170/ 19/ 20 1018.0R
LEWISETTA        0248   65 72  160/ 10/ 12 1017.6R
SOLOMONS ISLAND  0248   65 69  140/ 14/ 18   N/A
PINEY POINT      0248          150/ 19/ 21   N/A

$$





USA.gov is the U.S. government's official web portal to all federal, state and local government web resources and services.